Regional Weather Roundup
Issued by NWS State College, PA

Home | Current Version | Previous Version | Text Only | Print | Product List | Glossary On
Versions: 1 2 3 4 5 6 7 8 9 10 11 12 13 14 15 16 17 18 19 20 21 22 23 24 25 26 27 28 29 30 31 32 33 34 35 36 37 38 39 40 41 42 43 44 45 46 47 48 49 50
000
ASUS41 KCTP 020203
RWRCTP

REGIONAL WEATHER ROUNDUP
NATIONAL WEATHER SERVICE STATE COLLEGE PA
1000 PM EDT TUE SEP 01 2015

Note: "fair" indicates few or no clouds below 12,000 feet with no
significant weather and/or obstructions to visibility.

* = STATION THAT DOES NOT REPORT PRECIPITATION /E.G. RAIN...SNOW...ETC/
    THUNDER OR FOG.

PAZ002>004-007>009-013>016-020>023-029>032-020300-
WESTERN PENNSYLVANIA

CITY           SKY/WX    TMP DP  RH WIND       PRES   REMARKS
ERIE           CLEAR     72  66  81 S3        30.08S
MEADVILLE      CLEAR     72  65  78 CALM      30.12S
FRANKLIN*      CLEAR     70  64  83 CALM      30.15R
NEW CASTLE     FAIR      75  73  93 CALM      30.12R
BEAVER COUNTY  NOT AVBL
BUTLER*        PTCLDY    72  66  83 CALM      30.13R
PITTSBURGH INT CLOUDY    78  67  68 W5        30.11R
PITTSBURGH     PTCLDY    79  62  56 W7        30.10R
INDIANA*       MOCLDY    72  66  83 CALM      30.15S
LATROBE        PTCLDY    72  68  88 CALM      30.12R
WASHINGTON CO* PTCLDY    70  66  88 CALM      30.12S
$$

PAZ004>006-010>012-017>019-024>028-033>037-041-042-045-046-049>053-020300-
CENTRAL PENNSYLVANIA

CITY           SKY/WX    TMP DP  RH WIND       PRES   REMARKS
BRADFORD       CLEAR     64  61  90 CALM      30.15R FOG
DUBOIS         CLEAR     70  63  78 CALM      30.13S
CLEARFIELD     CLEAR     69  64  84 CALM      30.13R
JOHNSTOWN      PTCLDY    76  61  59 N3        30.17R
ALTOONA        CLEAR     68  64  87 CALM      30.13R
STATE COLLEGE  NOT AVBL
WILLIAMSPORT   CLEAR     73  68  84 NW3       30.05R
SELINSGROVE    CLEAR     67  65  93 CALM      30.06R FOG
FT INDIANTOWN  CLEAR     69  66  90 CALM      30.06R
CAPITAL CITY   CLEAR     73  65  75 W3        30.05R
HARRISBURG     PTCLDY    75  67  76 CALM      30.04S
YORK           CLEAR     66  64  93 CALM      30.06R
$$

PAZ038>040-043-044-047-048-054-055-060>062-067>071-020300-
EASTERN PENNSYLVANIA

CITY           SKY/WX    TMP DP  RH WIND       PRES   REMARKS
SCRANTON       CLEAR     73  62  68 E7        30.07S
MOUNT POCONO   CLEAR     63  61  93 CALM      30.13R
ALLENTOWN      CLEAR     72  66  81 N3        30.05S
QUAKERTOWN*    CLEAR     72  66  83 CALM      30.07R
READING        CLEAR     75  67  76 CALM      30.04R
LANCASTER      CLEAR     74  65  73 W3        30.05R
COATESVILLE    CLEAR     73  64  73 W3        30.08R
POTTSTOWN      CLEAR     73  67  81 CALM      30.07R
BLUE BELL      CLEAR     70  68  94 CALM      30.05R
DOYLESTOWN     CLEAR     73  67  81 SE3       30.05R
WILLOW GROVE   NOT AVBL
NORTH PHILA    CLEAR     79  64  60 SE6       30.07R
PHILADELPHIA   CLEAR     79  70  74 E5        30.06R
$$



USA.gov is the U.S. government's official web portal to all federal, state and local government web resources and services.